This is the latest recevied weather packets stored in our database for station/object RN1M-13. If no packets are shown the sender has not sent any weather packets the latest 10 day(s).
| Time | Temp. | Humidity | Pressure | Rain* | Wind** | Luminosity | Snow |
|---|---|---|---|---|---|---|---|
| 1787462605 | 16.11° C | 100% | 995.4 hPa | - | - | - | - |
| 1787461705 | 16.67° C | 100% | 995.8 hPa | - | - | - | - |
| 1787452717 | 16.67° C | 100% | 994.3 hPa | - | - | - | - |
| 1787451817 | 17.22° C | 100% | 993 hPa | - | - | - | - |
| 1787450917 | 17.78° C | 100% | 993 hPa | - | - | - | - |
| 1787450008 | 17.78° C | 100% | 993.3 hPa | - | - | - | - |
| 1787449108 | 18.33° C | 100% | 993.5 hPa | - | - | - | - |
| 1787448208 | 18.33° C | 100% | 993.7 hPa | - | - | - | - |
| 1787447308 | 18.33° C | 100% | 993.5 hPa | - | - | - | - |
| 1787446450 | 18.89° C | 100% | 994.8 hPa | - | - | - | - |
| 1787446408 | 18.89° C | 100% | 994.8 hPa | - | - | - | - |
| 1787445508 | 18.89° C | 100% | 995.3 hPa | - | - | - | - |
| 1787444608 | 18.89° C | 100% | 995.8 hPa | - | - | - | - |
| 1787443708 | 18.89° C | 100% | 996.3 hPa | - | - | - | - |
| 1787442810 | 18.33° C | 100% | 997.1 hPa | - | - | - | - |
| 1787441913 | 19.44° C | 100% | 998.2 hPa | - | - | - | - |
| 1787441013 | 19.44° C | 100% | 999 hPa | - | - | - | - |
| 1787440112 | 18.89° C | 100% | 999.8 hPa | - | - | - | - |
| 1787439212 | 18.89° C | 100% | 1000.4 hPa | - | - | - | - |
| 1787438312 | 18.89° C | 100% | 1000.4 hPa | - | - | - | - |
| 1787437412 | 19.44° C | 100% | 1001 hPa | - | - | - | - |
| 1787436512 | 19.44° C | 100% | 1005.4 hPa | - | - | - | - |
| 1787435612 | 20° C | 100% | 1005.2 hPa | - | - | - | - |
| 1787434712 | 18.89° C | 100% | 1007.1 hPa | - | - | - | - |
| 1787433812 | 18.33° C | 100% | 1009.2 hPa | - | - | - | - |
* Rain since midnight (hover to see other rain measurements)
** Current wind speed in m/s (hover to see current wind gust speed)